This is the latest recevied weather packets stored in our database for station/object AE5PL. If no packets are shown the sender has not sent any weather packets the latest 10 day(s).
| Time | Temp. | Humidity | Pressure | Rain* | Wind** | Luminosity | Snow |
|---|---|---|---|---|---|---|---|
| 1777660004 | 16.67° C | 61% | 1016.4 hPa | 0.51 mm | - | - | - |
| 1777659704 | 16.67° C | 62% | 1016.6 hPa | 0.51 mm | - | - | - |
| 1777659404 | 16.67° C | 63% | 1016.7 hPa | 0.51 mm | - | - | - |
| 1777659104 | 16.67° C | 63% | 1016.7 hPa | 0.51 mm | - | - | - |
| 1777658804 | 16.67° C | 62% | 1016.9 hPa | 0.51 mm | - | - | - |
| 1777658504 | 16.67° C | 61% | 1016.9 hPa | 0.51 mm | - | - | - |
| 1777658204 | 16.67° C | 64% | 1017.1 hPa | 0.51 mm | - | - | - |
| 1777657904 | 16.67° C | 60% | 1017.2 hPa | 0.51 mm | - | - | - |
| 1777657604 | 16.67° C | 61% | 1017.2 hPa | 0.51 mm | - | - | - |
| 1777657304 | 16.67° C | 63% | 1017.3 hPa | 0.51 mm | - | - | - |
| 1777657004 | 16.67° C | 65% | 1017.3 hPa | 0.51 mm | - | - | - |
| 1777656704 | 16.67° C | 67% | 1017.4 hPa | 0.51 mm | - | - | - |
| 1777656404 | 16.67° C | 66% | 1017.2 hPa | 0.51 mm | - | - | - |
| 1777656104 | 16.67° C | 68% | 1017.2 hPa | 0.51 mm | - | - | - |
| 1777655804 | 16.67° C | 70% | 1017.4 hPa | 0.51 mm | - | - | - |
| 1777655504 | 16.11° C | 67% | 1017.4 hPa | 0.51 mm | - | - | - |
| 1777655204 | 16.11° C | 71% | 1017.6 hPa | 0.51 mm | - | - | - |
| 1777654904 | 16.11° C | 71% | 1017.7 hPa | 0.51 mm | - | - | - |
| 1777654604 | 15.56° C | 70% | 1017.8 hPa | 0.51 mm | - | - | - |
| 1777654304 | 15.56° C | 74% | 1017.9 hPa | 0.51 mm | - | - | - |
| 1777654004 | 15.56° C | 74% | 1017.7 hPa | 0.51 mm | - | - | - |
| 1777653704 | 15.56° C | 75% | 1017.9 hPa | 0.51 mm | - | - | - |
| 1777653404 | 15° C | 77% | 1018.2 hPa | 0.51 mm | - | - | - |
| 1777653104 | 15° C | 77% | 1018.2 hPa | 0.51 mm | - | - | - |
| 1777652804 | 15° C | 80% | 1018 hPa | 0.51 mm | - | - | - |
* Rain latest 24 hours (hover to see other rain measurements)
** Current wind speed in m/s (hover to see current wind gust speed)